Tracking 19795 objects as of 20-Jul-2019
HD Live streaming from Space Station
objects crossing your sky now

COSMOS 1275 DEB

Track COSMOS 1275 DEB now!
10-day predictions


NORAD ID: 12673
Int'l Code: 1981-053AD
Perigee: 860.9 km
Apogee: 931.9 km
Inclination: 82.9 °
Period: 102.8 minutes
Semi major axis: 7267 km
RCS: 0.1532 m2 (medium)
Launch date: June 4, 1981
Source: Commonwealth of Independent States (former USSR) (CIS)
Launch site: PLESETSK MISSILE AND SPACE COMPLEX (PKMTR)

Note: This is SATELLITE DEBRIS
aabbcc
Your satellite tracking list
Your tracking list is empty




NASA's NSSDC Master Catalog

Two Line Element Set (TLE):
1 12673U 81053AD  19200.85456139 +.00000141 +00000-0 +82124-4 0  9996
2 12673 082.8549 333.2804 0048835 042.7132 088.0760 14.01300484920428
Source of the keplerian elements: AFSPC